User: anonymous   Login
Location: Adamstown South Public School
(32.9318°S, 151.7012°E)
Time: 17:24:35
(UTC+00:00)
Language:

COSMOS 2455 - Orbit

View from above orbital plane
View from above orbital plane
View from above satellite
View from above satellite

Ground track
Ground track

The orbit data is extracted from the following two-line orbital elements,

1 36095U 09063A   20228.41422834 -.00000066  00000-0  69224-5 0  9994
2 36095  67.1486  35.8142 0008900 277.2004  82.8068 13.96769549547589
Epoch (UTC): 15 August 2020 09:56:29
Eccentricity: 0.0008900
inclination: 67.1486°
perigee height: 898 km
apogee height: 911 km
right ascension of ascending node: 35.8142°
argument of perigee: 277.2004°
revolutions per day: 13.96769549
mean anomaly at epoch: 82.8068°
orbit number at epoch: 54758

The dashed part of the orbit path shows where the satellite is in the earth's shadow,  

DLR